Regional Weather Roundup
Issued by NWS Boston, MA

Current Version | Previous Version | Text Only | Print | Product List | Glossary On
Versions: 1 2 3 4 5 6 7 8 9 10 11 12 13 14 15 16 17 18 19 20 21 22 23 24 25 26 27 28 29 30 31 32 33 34 35 36 37 38 39 40 41 42 43 44 45 46 47 48 49 50
000 ASUS41 KBOX 140810 RWRBOX REGIONAL WEATHER ROUNDUP NATIONAL WEATHER SERVICE TAUNTON MA 300 AM EST THU DEC 14 2017 NOTE: "FAIR" INDICATES FEW OR NO CLOUDS BELOW 12,000 FEET WITH NO SIGNIFICANT WEATHER AND/OR OBSTRUCTIONS TO VISIBILITY. MAZALL-140900- EASTERN MASSACHUSETTS CITY SKY/WX TMP DP RH WIND PRES REMARKS BOSTON CLOUDY 23 8 52 W16 29.61R WCI 10 BEVERLY CLOUDY 22 9 57 W12 29.59R WCI 10 LAWRENCE CLOUDY 23 9 55 W14 29.60R WCI 11 BEDFORD CLOUDY 21 9 59 SW9 29.59S WCI 11 BLUE HILL N/A 20 6 55 W16G24 29.56R WCI 6 NORWOOD CLOUDY 24 8 50 SW13G20 29.62S WCI 12 MARSHFIELD CLOUDY 23 7 50 W10G18 29.62S WCI 12 PLYMOUTH CLOUDY 25 5 42 W14G22 29.63R WCI 13 TAUNTON CLOUDY 24 5 44 W10G23 29.63S WCI 14 NEW BEDFORD CLOUDY 25 6 44 W8 29.63F WCI 16 $$ MAZALL-140900- CAPE COD AND THE ISLANDS CITY SKY/WX TMP DP RH WIND PRES REMARKS FALMOUTH CLOUDY 25 3 39 W17 29.64S WCI 11 HYANNIS CLOUDY 26 7 44 W13 29.62R WCI 15 CHATHAM CLOUDY 26 9 48 VRB7G18 29.64R WCI 18 PROVINCETOWN MOCLDY 25 13 60 W22G28 29.62 WCI 10 NANTUCKET CLOUDY 30 18 60 W15G25 29.63S WCI 19 MARTHAS VNYRD CLOUDY N/A N/A N/A W16G22 29.63S $$ MAZALL-140900- CENTRAL AND WESTERN MASSACHUSETTS CITY SKY/WX TMP DP RH WIND PRES REMARKS WORCESTER CLOUDY 16 5 62 SW12 29.54F WCI 3 FITCHBURG CLOUDY 22 9 57 CALM 29.59S ORANGE NOT AVBL SPRINGFIELD CLOUDY 20 7 58 SW5 29.58F WCI 13 WESTFIELD MOCLDY 20 9 62 SW3 29.59F NORTH ADAMS CLOUDY 17 8 67 W5 29.56S WCI 10 PITTSFIELD LGT SNOW 15 9 76 SW3 29.50F $$ RIZALL-140900- RHODE ISLAND CITY SKY/WX TMP DP RH WIND PRES REMARKS PROVIDENCE NOT AVBL NEWPORT CLOUDY 24 10 55 W8 29.63F WCI 15 BLOCK ISLAND LGT SNOW 27 25 92 SW13 29.63F FOG WCI 16 SMITHFIELD CLOUDY 20 8 60 W7 29.60F WCI 11 WESTERLY LGT SNOW 24 18 77 CALM 29.64F $$ CTZALL-140900- CONNECTICUT CITY SKY/WX TMP DP RH WIND PRES REMARKS BRADLEY INTL FLURRIES 21 14 74 SW5 29.60F WCI 15 HARTFORD FLURRIES 23 14 68 W3 29.62F BRIDGEPORT LGT SNOW 23 18 81 N6 29.62F WCI 16 DANBURY LGT SNOW 22 18 85 CALM 29.58F FOG GROTON LGT SNOW 23 18 81 N6 29.62F WCI 16 NEW HAVEN FLURRIES 24 17 74 CALM 29.62F CHESTER LGT SNOW 21 18 86 CALM 29.59F MERIDEN FLURRIES 21 17 84 S5 29.61F WCI 15 WILLIMANTIC LGT SNOW 22 15 75 VRB3 29.62F OXFORD LGT SNOW 19 18 93 S3 29.56F FOG $$ MEZ002-015-021-024-NHZ003-005-008-011-012-014-VTZ005-008-140900- NORTHERN NEW ENGLAND CITY SKY/WX TMP DP RH WIND PRES REMARKS PORTLAND ME CLOUDY 17 7 64 W14 29.52R WCI 3 BANGOR ME CLOUDY 12 4 70 SW8 29.42R WCI 0 CONCORD NH CLOUDY 19 8 62 SW7 29.55R WCI 10 MANCHESTER NH CLOUDY 20 9 62 VRB6 29.56R WCI 12 NASHUA NH CLOUDY 19 11 70 W8 29.58R WCI 9 PORTSMOUTH NH MOCLDY 20 10 66 SW10 29.55R WCI 8 JAFFREY NH CLOUDY 16 9 74 SW6 29.52S WCI 7 KEENE NH CLOUDY 17 10 74 S6 29.56F WCI 9 BURLINGTON VT CLOUDY 10 2 69 CALM 29.55S MT. WASHINGTON BLWGSNOW -11 -11 100 W82G90 N/A VSB 1/16WCI -53 $$ NYZ052-076-140900- EASTERN NEW YORK CITY SKY/WX TMP DP RH WIND PRES REMARKS ALBANY CLOUDY 20 6 55 CALM 29.59F NEW YORK CITY LGT SNOW 25 21 85 E5 29.59F FOG WCI 19 $$ ANZALL-140900- MARINE OBSERVATIONS STATION/POSITION TIME TEMP WIND PRES VSBY WAVE AIR SEA DIR/SP/G HT/PER (UTC) (F) (DEG/KT/KT) (MB) (MI) (FT/S) BOSTON BUOY 0750 26 48 240/ 23/ 27 1002.0R 3/ 4 BUZZARDS BAY 0700 28 280/ 23/ 28 1004.1R NANTUCKET SOUND 0750 29 43 280/ 19/ 25 1003.2R 3/ 5 MASS BAY-STELLWA 0704 26 47 260/ 21/ 27 1001.1R 4/ 5 ISLE OF SHOALS 0700 22 260/ 22/ 26 1000.2R S OF BLOCK IS 0743 54 N/A 9/ 8 $$ ......................KEY......................... SKY/WX - SKY CONDITION/PRESENT WEATHER TMP - TEMPERATURE IN FAHRENHEIT DWPT - DEWPOINT IN FAHRENHEIT RH - RELATIVE HUMIDITY IN PERCENT WIND - DIRECTION AND SPEED IN MPH PRES - MEAN SEA LEVEL PRESSURE IN INCHES OF HG WCI - WIND CHILL INDEX VSB - VISIBILITY IN MILES HX - HEAT INDEX TC - TEMPERATURE IN CELSIUS VRB - VARIABLE WIND DIRECTION N/A - NOT AVAILABLE

USA.gov is the U.S. government's official web portal to all federal, state and local government web resources and services.